Location: Derby
(52.9213°N, 1.4761°W)
Time: 16:33:30
(UTC+01:00)

Vanguard 1 - Pass Details

Date: 24 May 2025
Orbit: 649 x 3822 km, 34.3° (Epoch: 14 June)

Event Time Altitude Azimuth Distance (km) Brightness Sun altitude
Rises 17:12:18 0° 227° (SW) 7,894 15.4 33.1°
Reaches altitude 10° 17:18:53 10° 219° (SW) 6,661 15.1 32.1°
Maximum altitude 17:35:12 32° 167° (SSE) 4,062 13.4 29.7°
Drops below altitude 10° 17:46:07 10° 112° (ESE) 4,456 13.0 28.0°
Sets 17:49:26 0° 102° (ESE) 5,059 13.2 27.5°
